Weather History for KIML - August, 2013

Change the Weather History Date:

Friday, August 23, 2013

  Actual Average Record
Temperature  
Mean Temperature 79 °F 72 °F  
Max Temperature 92 °F 87 °F 104 °F (1919)
Min Temperature 65 °F 59 °F 41 °F (1896)
Degree Days  
Heating Degree Days 0 0  
Month to date heating degree days 0 0  
Since 1 June heating degree days 32 36  
Cooling Degree Days 14 8  
Month to date cooling degree days 212 226  
Year to date cooling degree days 833 810  
Since 1 June cooling degree days 765 766  
Growing Degree Days 28 (Base 50)    
Moisture  
Dew Point 63 °F    
Average Humidity 66    
Maximum Humidity 100    
Minimum Humidity 32    
Precipitation  
Precipitation T in 0.08 in 1.48 in (1933)
Sea Level Pressure  
Sea Level Pressure 29.96 in    
Wind  
Wind Speed 9 mph (ESE)    
Max Wind Speed 18 mph    
Max Gust Speed 24 mph    
Visibility 6 miles    
Events Fog    
T = Trace of Precipitation, MM = Missing Value Source: NWS Daily Summary

Daily Weather History Graph

Daily Weather History Graph

Search for Another Location

Airport or City:

Trip Planner

Search our weather history database for the weather conditions in past years. The results will help you decide how hot, cold, wet, or windy it might be!

Date:

Astronomy

Aug. 23, 2013 Rise Set
Actual Time 6:05 AM MDT 7:32 PM MDT
Civil Twilight 5:36 AM MDT 8:00 PM MDT
Nautical Twilight 5:02 AM MDT 8:34 PM MDT
Astronomical Twilight 4:25 AM MDT 9:11 PM MDT
Moon 8:50 PM MDT (8/23) 9:03 AM MDT (8/23)
Length of Visible Light 14h 23m
Length of Day
13h 26m
Waning Gibbous, 91% of the Moon is Illuminated
Aug 23
Waning Gibbous
Aug 28
Last Quarter
Sep 5
New
Sep 12
First Quarter
Sep 19
Full

Hourly Weather History & Observations

Time (MDT) Temp. Heat Index Dew Point Humidity Pressure Visibility Wind Dir Wind Speed Gust Speed Precip Events Conditions
12:53 AM 66.0 °F - 63.0 °F 90% 30.02 in 6.0 mi North 3.5 mph - N/A   Clear
1:53 AM 66.0 °F - 63.0 °F 90% 29.99 in 5.0 mi Calm Calm - N/A   Clear
2:12 AM 64.4 °F - 62.6 °F 94% 30.07 in 5.0 mi North 3.5 mph - N/A   Partly Cloudy
2:40 AM 64.4 °F - 62.6 °F 94% 30.08 in 5.0 mi Calm Calm - N/A   Mostly Cloudy
2:53 AM 64.9 °F - 63.0 °F 93% 29.98 in 5.0 mi Calm Calm - N/A   Overcast
3:19 AM 66.2 °F - 64.4 °F 94% 30.09 in 5.0 mi Calm Calm - N/A   Overcast
3:53 AM 66.9 °F - 64.0 °F 90% 29.97 in 4.0 mi NNW 4.6 mph - N/A   Overcast
4:34 AM 66.2 °F - 64.4 °F 94% 30.07 in 2.0 mi WNW 5.8 mph - N/A   Overcast
4:45 AM 66.2 °F - 64.4 °F 94% 30.07 in 1.8 mi WNW 4.6 mph - N/A   Overcast
4:53 AM 66.9 °F - 64.9 °F 93% 29.97 in 1.5 mi NW 4.6 mph - N/A   Overcast
5:31 AM 66.2 °F - 66.2 °F 100% 30.07 in 0.5 mi East 4.6 mph - N/A Fog Fog
5:53 AM 66.0 °F - 66.0 °F 100% 29.98 in 0.5 mi East 5.8 mph - N/A Fog Fog
6:21 AM 66.2 °F - 66.2 °F 100% 30.05 in 1.2 mi East 8.1 mph - N/A   Overcast
6:31 AM 66.2 °F - 66.2 °F 100% 30.04 in 0.5 mi East 10.4 mph - N/A Fog Fog
6:53 AM 66.0 °F - 66.0 °F 100% 29.95 in 0.8 mi ENE 10.4 mph - N/A   Overcast
7:01 AM 66.2 °F - 66.2 °F 100% 30.04 in 1.2 mi East 10.4 mph - N/A   Overcast
7:53 AM 66.9 °F - 66.0 °F 97% 29.97 in 1.8 mi ESE 4.6 mph - N/A   Overcast
8:02 AM 66.2 °F - 66.2 °F 100% 30.04 in 2.5 mi East 8.1 mph - N/A   Overcast
8:53 AM 68.0 °F - 66.0 °F 93% 29.99 in 3.0 mi SSE 6.9 mph - 0.00 in   Overcast
9:01 AM 69.8 °F - 66.2 °F 88% 30.06 in 4.0 mi SE 5.8 mph - N/A   Overcast
9:18 AM 69.8 °F - 66.2 °F 88% 30.07 in 5.0 mi SW 5.8 mph - N/A   Overcast
9:53 AM 73.0 °F - 66.0 °F 79% 29.99 in 6.0 mi Variable 3.5 mph - N/A   Haze
10:53 AM 78.1 °F - 64.9 °F 64% 29.97 in 10.0 mi South 5.8 mph - N/A   Clear
11:53 AM 81.0 °F 81.6 °F 60.1 °F 49% 29.95 in 10.0 mi SE 12.7 mph - N/A   Clear
12:53 PM 84.9 °F 84.2 °F 57.9 °F 40% 29.92 in 10.0 mi SE 13.8 mph - N/A   Clear
1:53 PM 88.0 °F 86.7 °F 57.0 °F 35% 29.90 in 10.0 mi SE 13.8 mph 20.7 mph N/A   Clear
2:53 PM 89.1 °F 88.2 °F 59.0 °F 36% 29.88 in 10.0 mi ESE 12.7 mph - N/A   Clear
3:53 PM 91.0 °F 90.0 °F 57.9 °F 33% 29.84 in 10.0 mi SE 15.0 mph 21.9 mph N/A   Clear
4:53 PM 91.0 °F 90.5 °F 60.1 °F 35% 29.82 in 10.0 mi SE 13.8 mph - N/A   Clear
5:53 PM 90.0 °F 90.0 °F 61.0 °F 38% 29.81 in 10.0 mi SE 10.4 mph - N/A   Clear
6:53 PM 84.9 °F 85.9 °F 63.0 °F 48% 29.81 in 10.0 mi ESE 10.4 mph - N/A   Clear
7:53 PM 78.1 °F - 63.0 °F 60% 29.82 in 10.0 mi SE 5.8 mph - N/A   Clear
8:53 PM 75.9 °F - 62.1 °F 62% 29.85 in 10.0 mi SE 8.1 mph - N/A   Clear
9:53 PM 75.0 °F - 63.0 °F 66% 29.85 in 10.0 mi SE 8.1 mph - N/A   Clear
10:53 PM 73.9 °F - 62.1 °F 66% 29.85 in 10.0 mi SE 9.2 mph - N/A   Clear
11:53 PM 77.0 °F - 54.0 °F 45% 29.84 in 10.0 mi South 10.4 mph 17.3 mph N/A   Clear